Skip Page Navigation
NASA JPL Caltech
NASA Logo - Jet Propulsion Laboratory + View the NASA Portal
+ Center for Near-Earth Object Studies
JPL Home Earth Solar System Stars & Galaxies Technology
JPL Solar System Dynamics
BODIES ORBITS EPHEMERIDES TOOLS PHYSICAL DATA DISCOVERY FAQ SITE MAP
JPL Small-Body Database Browser
Search: [ help ]  
135864 (2002 TA10)
Classification: Main-belt Asteroid          SPK-ID: 2135864
Ephemeris | Orbit Diagram | Orbital Elements | Mission Design | Physical Parameters | Discovery Circumstances | Close-Approach Data ]

[ show orbit diagram ]
Orbital Elements at Epoch 2459200.5 (2020-Dec-17.0) TDB
Reference: JPL 24 (heliocentric ecliptic J2000)
 Element Value Uncertainty (1-sigma)   Units 
e .1157501757158558 3.8601e-08  
a 2.660906327987805 1.2261e-08 au
q 2.352905952959784 1.0512e-07 au
i 6.890345550835941 3.7125e-06 deg
node 129.724979391961 3.2418e-05 deg
peri 249.5714612185829 3.6475e-05 deg
M 76.94374425517225 1.561e-05 deg
tp 2458861.645215705549
(2020-Jan-13.14521571)
6.8397e-05 TDB
period 1585.414428773425
4.34
1.0958e-05
3e-08
d
yr
n .2270699657240526 1.5695e-09 deg/d
Q 2.968906703015826 1.368e-08 au
  Orbit Determination Parameters
   # obs. used (total)      850  
   data-arc span      9550 days (26.15 yr)  
   first obs. used      1994-12-28  
   last obs. used      2021-02-19  
   planetary ephem.      DE441  
   SB-pert. ephem.      SB441-N16  
   condition code      0  
   norm. resid. RMS      .50113  
   source      ORB  
   producer      Otto Matic  
   solution date      2021-Apr-13 18:14:55  

Additional Information
 Earth MOID = 1.36375 au 
 Jupiter MOID = 2.51944 au 
 T_jup = 3.366 
[ hide covariance matrix ]
Orbital Elements at Epoch 2457549.5 (2016-Jun-10.0) TDB
Reference: JPL 24 (heliocentric ecliptic J2000)
 Element Value Uncertainty (1-sigma)   Units 
e .1167756246459921 3.9074e-08  
q 2.349054872531286 1.0653e-07 au
tp 2457270.792542525716
(2015-Sep-05.29254253)
6.6021e-05 TDB
node 129.892881370208 3.2434e-05 deg
peri 248.2103480435825 3.6313e-05 deg
i 6.88994550543571 3.7149e-06 deg
  Orbit Determination Parameters
   # obs. used (total)      850  
   data-arc span      9550 days (26.15 yr)  
   first obs. used      1994-12-28  
   last obs. used      2021-02-19  
   planetary ephem.      DE441  
   SB-pert. ephem.      SB441-N16  
   condition code      0  
   norm. resid. RMS      .50113  
   source      ORB  
   producer      Otto Matic  
   solution date      2021-Apr-13 18:14:55  

Additional Information
 Jupiter MOID = 2.51944 au 
 T_jup = 3.366 
Orbit Covariance (6×6)
  e q tp node peri i
e 1.526746097937192E-15 -4.141699027834343E-15 -6.285677998733995E-13 6.621247847838593E-15 -1.710588404804277E-13 -2.354829725695194E-15
q -4.141699027834343E-15 1.134887196035097E-14 1.669065337942872E-12 -1.782443112829437E-14 4.593970336151457E-13 6.777979143571901E-15
tp -6.285677998733995E-13 1.669065337942872E-12 4.358734204814205E-9 -1.026797288761822E-11 1.094466025647559E-9 7.702103076010135E-13
node 6.621247847838593E-15 -1.782443112829437E-14 -1.026797288761822E-11 1.051987356069577E-9 -1.04679567299105E-9 3.201895885715216E-11
peri -1.710588404804277E-13 4.593970336151457E-13 1.094466025647559E-9 -1.04679567299105E-9 1.318654746317222E-9 -3.161762613856531E-11
i -2.354829725695194E-15 6.777979143571901E-15 7.702103076010135E-13 3.201895885715216E-11 -3.161762613856531E-11 1.38002601256676E-11

Ephemeris | Orbit Diagram | Orbital Elements | Mission Design | Physical Parameters | Discovery Circumstances | Close-Approach Data ]

Physical Parameter Table
Parameter Symbol Value Units Sigma Reference Notes
absolute magnitude H 15.57   n/a MPCxxxxx  

135864 (2002 TA10)          Discovered 2002-Oct-01 by LINEAR at Socorro
Reference: 20060907/Numbers.arcLast Updated: 2006-09-10

[ show close-approach data ]
Ephemeris | Orbit Diagram | Orbital Elements | Mission Design | Physical Parameters | Discovery Circumstances | Close-Approach Data ]
ABOUT SSD CREDITS/AWARDS PRIVACY/COPYRIGHT GLOSSARY LINKS
FirstGov 2021-Jun-14 19:28 UT
(server date/time)  
NASA Home Page
Site Manager:   Ryan S. Park
Webmaster  Alan B. Chamberlin